Flag for Germany Weather past 2 weeks in Backnang, Baden-Württemberg, Germany

Now
69 °F

Sunny.


Feels Like: 69 °F
Forecast: 55 / 77 °F
Wind: 2 mph from Northeast

Location: Oehringen

Current Time: Sep 18, 2014 at 11:48:35 AM

Latest Report: Sep 18, 2014 at 11:00 AM


Visibility: 11 mi

Pressure: 29.88 "Hg

Humidity: 64%

Dew point: 56 °F

Location of BacknangLocation

Historic Weather in Backnang — Graph

°F

Backnang temperature yesterday

Maximum temperature yesterday: 74 °F (at 4:00 PM)
Minimum temperature yesterday: 53 °F (at 7:00 AM)
Average temperature yesterday: 62 °F

Past Weeks' High & Low Weather Summary

 TemperatureHumidityPressure
High79 °F (Sep 8, 5:00 PM)99% (Sep 12, 3:00 PM)30.16 "Hg (Sep 12, 3:00 PM)
Low49 °F (Sep 11, 7:00 AM)45% (Sep 10, 4:00 PM)29.86 "Hg (Sep 6, 6:00 PM)
Average62 °F83%30.01 "Hg
* Reported Sep 3 10:00 AM — Sep 18 10:00 AM, Backnang, Weather by CustomWeather, © 2014

Note: Actual official high and low records may vary slightly from our data, if they occured in-between our weather recording intervals... More about our weather records

Advertising

Backnang weather history for previous 24 hours

 ConditionsComfort  
Time TempWeatherWind HumidityBarometerVisibility
10:00 AM
Sep 18
65 °FSunny.3 mph74%29.89 "Hg9 mi
9:00 AM62 °FOvercast.1 mph80%29.88 "Hg7 mi
8:00 AM59 °FOvercast.2 mph89%29.89 "Hg6 mi
7:00 AM59 °FLight rain. Overcast.1 mph90%29.88 "Hg6 mi
6:00 AM59 °FOvercast.2 mph89%29.87 "Hg6 mi
5:00 AM59 °FOvercast.2 mph91%29.88 "Hg6 mi
4:00 AM58 °FFog.2 mph93%29.88 "Hg4 mi
3:00 AM58 °FOvercast.1 mph93%29.89 "Hg5 mi
2:00 AM59 °FClear.3 mph91%29.88 "Hg6 mi
1:00 AM60 °FPassing clouds.3 mph90%29.88 "Hg6 mi
12:00 AM61 °FClear.3 mph90%29.89 "Hg6 mi
11:00 PM
Sep 17
61 °FClear.2 mph93%29.89 "Hg6 mi
10:00 PM62 °FPassing clouds.1 mph91%29.89 "Hg6 mi
9:00 PM64 °FPassing clouds.1 mph86%29.89 "Hg8 mi
8:00 PM67 °FClear.2 mph76%29.88 "Hg9 mi
7:00 PM72 °FSunny.2 mph65%29.86 "Hg13 mi
6:00 PM73 °FSunny.3 mph57%29.86 "Hg17 mi
5:00 PM74 °FSunny.5 mph55%29.86 "Hg17 mi
4:00 PM74 °FSunny.3 mph57%29.87 "Hg11 mi
3:00 PM73 °FSunny.3 mph60%29.88 "Hg10 mi
2:00 PM72 °FSunny.3 mph67%29.90 "Hg9 mi
1:00 PM69 °FSunny.3 mph71%29.91 "Hg13 mi
12:00 PM65 °FSunny.5 mph77%29.93 "Hg11 mi
11:00 AM63 °FSunny.5 mph79%29.94 "Hg6 mi
Weather by CustomWeather, © 2014

See weather overviewHow to use our weather pages